This demonstration page uses our WeatherBlox Daily Observations layout. Learn more.

Left ArrowRight Arrow

Hourly Observations for May 20, 2022

Temp ( °F °C ) Dew Point ( °F °C ) Humidity (%) Winds ( mph kmh ) Pressure ( in mb ) Visibility ( mi km ) Precip ( " mm )
12:59 am 00:59 Partly Cloudy 74 23.3 63 17.2 69 69 SSE 8 13 29.85 1011 10 16 0.00 0.00
1:59 am 01:59 Clear 74 23.3 63 17.2 69 69 SSE 8 13 29.85 1011 10 16 0.00 0.00
2:59 am 02:59 Clear 74 23.3 64 17.8 71 71 SSE 6 9 29.85 1011 10 16 0.00 0.00
3:59 am 03:59 Mostly Cloudy 74 23.3 64 17.8 71 71 SSE 5 7 29.85 1011 10 16 0.00 0.00
4:59 am 04:59 Mostly Cloudy 73 22.8 66 18.9 79 79 E 3 6 29.84 1011 9 14 0.00 0.00
5:59 am 05:59 Partly Cloudy 72 22.2 66 18.9 82 82 SSE 3 6 29.85 1011 8 13 0.00 0.00
6:59 am 06:59 Mostly Cloudy 74 23.3 69 20.6 85 85 SSE 6 9 29.87 1012 7 11 0.00 0.00
7:59 am 07:59 Mostly Cloudy 78 25.6 71 21.7 79 79 S 3 6 29.91 1013 7 11 0.00 0.00
8:59 am 08:59 Mostly Cloudy 81 27.2 70 21.1 69 69 SSW 6 9 29.93 1014 7 11 0.00 0.00
9:59 am 09:59 Mostly Cloudy 85 29.4 66 18.9 53 53 SW 12 19 29.94 1014 8 13 0.00 0.00
10:59 am 10:59 Mostly Cloudy 87 30.6 68 20 53 53 SW 8 13 29.94 1014 8 13 0.00 0.00
11:59 am 11:59 Mostly Cloudy 89 31.7 69 20.6 52 52 SW 9 15 29.94 1014 8 13 0.00 0.00
12:59 pm 12:59 Mostly Cloudy 91 32.8 70 21.1 50 50 SW 12 19 29.93 1014 8 13 0.00 0.00
1:59 pm 13:59 Mostly Cloudy 91 32.8 69 20.6 49 49 SW 12 19 29.92 1013 8 13 0.00 0.00
2:59 pm 14:59 Mostly Cloudy 93 33.9 68 20 44 44 SW 10 17 29.92 1013 8 13 0.00 0.00
3:59 pm 15:59 Partly Cloudy 94 34.4 69 20.6 44 44 SW 10 17 29.91 1013 8 13 0.00 0.00
4:59 pm 16:59 Partly Cloudy 94 34.4 69 20.6 44 44 SW 9 15 29.91 1013 8 13 0.00 0.00
5:59 pm 17:59 Mostly Sunny 93 33.9 67 19.4 42 42 SW 13 20 29.92 1013 8 13 0.00 0.00
6:59 pm 18:59 Mostly Sunny 92 33.3 67 19.4 44 44 SW 9 15 29.92 1013 8 13 0.00 0.00
7:59 pm 19:59 Mostly Sunny 89 31.7 68 20 50 50 SSW 5 7 29.94 1014 8 13 0.00 0.00
8:59 pm 20:59 Mostly Clear 87 30.6 68 20 53 53 S 5 7 29.96 1014 9 14 0.00 0.00
9:59 pm 21:59 Clear 86 30 69 20.6 57 57 SSW 7 11 29.97 1015 9 14 0.00 0.00
10:59 pm 22:59 Clear 84 28.9 70 21.1 63 63 SSW 13 20 29.99 1016 9 14 0.00 0.00
11:59 pm 23:59 Clear 82 27.8 69 20.6 65 65 SSW 10 17 30.00 1016 9 14 0.00 0.00

Powered by AerisWeather